Waarnemingen

Advertentie
Mijn weer
Europlatform, Nederland (6321): temperatuur & dauwpunt: 23.03.2017 21:00:00 - 29.03.2017 21:00:00 (CEST)Europlatform, Nederland (6321): water temperatuur: 23.03.2017 21:00:00 - 29.03.2017 21:00:00 (CEST)Europlatform, Nederland (6321): windsnelheid & windstoten: 23.03.2017 21:00:00 - 29.03.2017 21:00:00 (CEST)Europlatform, Nederland (6321): windrichting: 23.03.2017 21:00:00 - 29.03.2017 21:00:00 (CEST)Europlatform, Nederland (6321): luchtdruk: 23.03.2017 21:00:00 - 29.03.2017 21:00:00 (CEST)Europlatform, Nederland (6321): zicht: 23.03.2017 21:00:00 - 29.03.2017 21:00:00 (CEST)
Datum & Tijd tt [°C] td [°C] tw [°C] ff [km/u] ff [kn] fx [km/u] fx [kn] dd ppp [hPa] vv [km]
29.03.2017 21:00:00 - - - - - - - - - -
29.03.2017 20:00:00 11,0 8,1 8,1 40 21 43 23 ZZW 1023,3 23
29.03.2017 19:00:00 10,9 7,1 8,1 32 18 43 23 ZZW 1023,1 22
29.03.2017 18:00:00 10,4 7,7 8,1 29 16 40 21 ZZW 1022,9 19
29.03.2017 17:00:00 10,0 8,0 8,1 29 16 40 21 ZZW 1023,1 15
29.03.2017 16:00:00 10,0 8,2 8,0 32 18 40 21 ZZW 1023,4 13
29.03.2017 15:00:00 10,0 8,6 8,0 32 18 40 21 ZZW 1023,4 11
29.03.2017 14:00:00 9,9 8,7 8,1 36 19 43 23 ZZW 1023,6 10
29.03.2017 13:00:00 9,9 8,7 8,1 36 19 43 23 ZZW 1023,5 11
29.03.2017 12:00:00 9,9 8,5 8,1 32 18 47 25 ZZW 1023,6 11
29.03.2017 11:00:00 9,9 8,5 8,1 36 19 47 25 ZZW 1023,2 10
29.03.2017 10:00:00 9,9 8,5 8,1 40 21 50 27 ZZW 1022,7 11
29.03.2017 09:00:00 10,1 8,3 8,1 40 21 50 27 ZZW 1022,1 12
29.03.2017 08:00:00 10,2 8,2 8,1 40 21 47 25 ZZW 1021,7 13
29.03.2017 07:00:00 10,2 8,2 8,0 40 21 50 27 ZZW 1021,5 13
29.03.2017 06:00:00 10,2 8,0 8,0 36 19 43 23 ZZW 1021,3 15
29.03.2017 05:00:00 9,4 7,9 8,0 29 16 40 21 Z 1021,1 11
29.03.2017 04:00:00 9,7 8,2 8,0 32 18 36 19 Z 1021,7 10
29.03.2017 03:00:00 9,6 8,3 8,0 29 16 43 23 ZZW 1022,2 8
29.03.2017 02:00:00 10,0 8,4 8,0 36 19 43 23 ZZW 1022,3 11
29.03.2017 01:00:00 10,2 8,4 8,0 36 19 43 23 ZZW 1022,4 12
29.03.2017 00:00:00 10,3 8,5 8,1 36 19 47 25 ZZW 1022,2 12
28.03.2017 23:00:00 10,3 8,3 8,1 36 19 47 25 ZZW 1021,8 12
28.03.2017 22:00:00 10,3 8,4 8,0 36 19 - - ZZW 1021,5 12
28.03.2017 21:00:00 10,1 8,6 8,0 40 21 50 27 ZZW 1021,3 11
28.03.2017 20:00:00 10,3 8,5 8,0 43 23 50 27 ZZW 1021,0 12
28.03.2017 19:00:00 10,3 8,3 8,0 40 21 47 25 ZZW 1020,6 16
28.03.2017 18:00:00 10,0 8,4 8,0 43 23 54 29 ZZW 1020,9 11
28.03.2017 17:00:00 9,9 8,2 8,0 29 16 36 19 ZW 1020,7 11
28.03.2017 16:00:00 9,8 7,9 8,0 32 18 36 19 ZW 1020,9 9
28.03.2017 15:00:00 9,9 7,0 8,0 22 12 32 18 ZZW 1020,8 8
28.03.2017 14:00:00 9,8 6,4 8,0 25 14 29 16 ZZW 1020,9 10
28.03.2017 13:00:00 9,5 6,3 8,0 18 10 18 10 Z 1020,9 11
28.03.2017 12:00:00 9,6 6,1 8,0 14 8 18 10 Z 1020,9 12
28.03.2017 11:00:00 9,8 5,5 8,0 14 8 18 10 Z 1020,6 16
28.03.2017 10:00:00 10,0 5,3 8,0 14 8 18 10 Z 1020,2 19
28.03.2017 09:00:00 10,1 4,4 8,0 18 10 22 12 Z 1020,0 21
28.03.2017 08:00:00 10,5 3,8 8,0 22 12 25 14 Z 1019,8 23
28.03.2017 07:00:00 10,6 3,0 8,0 22 12 22 12 ZZO 1019,8 24
28.03.2017 06:00:00 10,0 4,9 8,0 14 8 18 10 ZZO 1019,8 15
28.03.2017 05:00:00 10,8 3,9 8,0 18 10 18 10 ZZO 1019,9 23
28.03.2017 04:00:00 12,7 0,8 8,0 14 8 14 8 ZO 1020,1 33
28.03.2017 03:00:00 11,8 2,3 8,0 14 8 - - O 1020,2 25
28.03.2017 02:00:00 11,4 3,8 8,0 11 6 14 8 O 1020,5 24
28.03.2017 01:00:00 10,0 5,5 8,0 14 8 22 12 O 1020,8 12
28.03.2017 00:00:00 9,5 6,2 8,0 18 10 22 12 NO 1021,2 10
27.03.2017 23:00:00 9,4 6,4 8,0 22 12 29 16 NO 1021,3 10
27.03.2017 22:00:00 - - 8,0 22 12 - - NO 1021,2 15
27.03.2017 21:00:00 9,9 6,0 8,0 22 12 25 14 NNO 1021,1 13
27.03.2017 20:00:00 9,9 5,9 8,0 22 12 25 14 NNO 1020,8 12
27.03.2017 19:00:00 10,5 5,5 8,0 18 10 22 12 NNO 1020,9 14
27.03.2017 18:00:00 9,8 6,4 8,0 18 10 18 10 NNO 1021,0 11
27.03.2017 17:00:00 9,7 6,4 8,0 14 8 18 10 NNO 1021,2 11
27.03.2017 16:00:00 9,3 6,5 8,0 14 8 18 10 NO 1021,6 10
27.03.2017 15:00:00 8,9 6,2 7,9 14 8 18 10 NO 1022,3 9
27.03.2017 14:00:00 8,3 5,9 7,9 14 8 22 12 NNO 1023,0 9
27.03.2017 13:00:00 8,0 5,6 7,9 18 10 22 12 NO 1023,2 8
27.03.2017 12:00:00 7,9 5,7 7,9 18 10 25 14 NO 1023,6 7
27.03.2017 11:00:00 7,9 5,5 7,9 22 12 25 14 NO 1023,4 9
27.03.2017 10:00:00 7,8 5,8 7,9 14 8 22 12 NO 1023,5 7
27.03.2017 09:00:00 7,7 5,5 7,9 18 10 22 12 ONO 1023,8 8
27.03.2017 08:00:00 7,7 5,5 8,0 18 10 25 14 NO 1023,4 8
27.03.2017 07:00:00 7,8 5,7 7,9 22 12 25 14 NO 1023,1 8
27.03.2017 06:00:00 7,9 5,8 7,9 18 10 - - NO 1023,1 8
27.03.2017 05:00:00 8,0 6,0 7,9 18 10 25 14 NO 1023,2 8
27.03.2017 04:00:00 8,1 6,0 7,9 22 12 29 16 NO 1023,8 9
27.03.2017 03:00:00 8,2 6,3 7,9 25 14 29 16 NO 1023,9 9
27.03.2017 02:00:00 8,3 6,5 7,9 22 12 29 16 NO 1024,5 9
27.03.2017 01:00:00 8,4 6,6 7,9 25 14 32 18 NO 1024,6 11
27.03.2017 00:00:00 8,6 6,5 7,9 25 14 32 18 NO 1024,7 14
26.03.2017 23:00:00 8,5 6,7 7,9 25 14 29 16 NO 1024,8 14
26.03.2017 22:00:00 8,5 6,9 7,9 25 14 32 18 NNO 1024,8 12
26.03.2017 21:00:00 8,4 6,8 7,9 29 16 32 18 NNO 1024,5 12
26.03.2017 20:00:00 8,4 6,7 7,9 25 14 29 16 NNO 1024,4 11
26.03.2017 19:00:00 8,5 6,5 7,9 25 14 32 18 NNO 1024,4 14
26.03.2017 18:00:00 8,5 6,2 7,9 25 14 36 19 NNO 1024,4 14
26.03.2017 17:00:00 8,4 6,2 7,9 29 16 32 18 NNO 1024,7 13
26.03.2017 16:00:00 8,5 5,7 7,9 25 14 32 18 NNO 1025,0 17
26.03.2017 15:00:00 8,2 5,5 7,8 25 14 32 18 NNO 1025,3 16
26.03.2017 14:00:00 8,0 5,3 7,8 25 14 32 18 NNO 1025,7 16
26.03.2017 13:00:00 7,7 5,0 7,8 25 14 32 18 NNO 1025,9 15
26.03.2017 12:00:00 7,5 4,5 7,7 25 14 32 18 NO 1025,9 17
26.03.2017 11:00:00 7,5 4,2 7,8 29 16 32 18 NO 1026,2 19
26.03.2017 10:00:00 7,6 4,3 7,8 25 14 36 19 NO 1026,1 20
26.03.2017 09:00:00 7,5 4,1 7,9 29 16 36 19 NO 1026,0 21
26.03.2017 08:00:00 7,5 4,2 7,9 29 16 32 18 NO 1026,0 20
26.03.2017 07:00:00 7,5 4,4 7,9 29 16 32 18 NO 1025,7 20
26.03.2017 06:00:00 7,5 4,6 7,9 29 16 40 21 ONO 1025,5 20
26.03.2017 05:00:00 7,7 4,9 7,9 32 18 40 21 NO 1025,4 20
26.03.2017 04:00:00 7,9 4,9 7,9 36 19 43 23 NO 1025,4 20
26.03.2017 03:00:00 7,9 4,8 7,9 32 18 40 21 NO 1025,5 20
26.03.2017 02:00:00 7,9 3,9 7,9 36 19 - - NO 1025,7 20
26.03.2017 01:00:00 8,2 3,0 7,8 40 21 50 27 NO 1026,1 23
26.03.2017 00:00:00 8,4 2,7 7,9 40 21 47 25 NNO 1026,4 25
25.03.2017 23:00:00 8,3 2,8 7,9 36 19 47 25 NNO 1026,8 30
25.03.2017 22:00:00 8,3 3,1 7,9 40 21 50 27 NNO 1026,9 26
25.03.2017 21:00:00 8,4 2,8 7,9 43 23 50 27 NNO 1026,8 29
25.03.2017 20:00:00 8,5 2,9 7,9 40 21 47 25 NNO 1026,6 29
25.03.2017 19:00:00 8,4 3,0 7,9 40 21 47 25 NNO 1026,4 31
25.03.2017 18:00:00 8,6 2,3 7,9 40 21 50 27 NNO 1027,0 31
25.03.2017 17:00:00 8,5 1,7 7,9 43 23 50 27 N 1027,7 33
25.03.2017 16:00:00 8,2 1,9 7,8 36 19 47 25 N 1028,5 35
25.03.2017 15:00:00 8,0 2,6 7,8 36 19 43 23 NNO 1029,3 29
25.03.2017 14:00:00 7,9 2,9 7,8 32 18 40 21 NNO 1030,2 32
25.03.2017 13:00:00 7,7 3,3 7,8 32 18 40 21 NNO 1031,0 25
25.03.2017 12:00:00 7,7 3,7 7,8 32 18 40 21 NNO 1031,6 22
25.03.2017 11:00:00 7,7 3,2 7,9 32 18 40 21 NNO 1031,9 22
25.03.2017 10:00:00 7,5 3,0 7,9 29 16 36 19 NO 1032,0 21
25.03.2017 09:00:00 7,5 3,2 7,9 29 16 36 19 NO 1031,9 17
25.03.2017 08:00:00 7,5 3,1 7,9 29 16 32 18 NO 1031,6 18
25.03.2017 07:00:00 7,6 3,2 7,9 29 16 40 21 NO 1031,6 17
25.03.2017 06:00:00 7,7 3,3 7,9 32 18 40 21 NO 1031,6 18
25.03.2017 05:00:00 7,8 3,9 7,8 29 16 36 19 NO 1031,9 17
25.03.2017 04:00:00 8,0 4,1 7,8 32 18 40 21 NO 1032,2 16
25.03.2017 03:00:00 8,2 4,3 7,9 32 18 36 19 NO 1032,3 18
25.03.2017 02:00:00 8,3 4,5 7,8 29 16 40 21 NO 1032,5 17
25.03.2017 01:00:00 8,4 4,5 7,8 32 18 40 21 NO 1032,6 17
25.03.2017 00:00:00 8,4 4,8 7,8 32 18 40 21 NO 1032,6 16
24.03.2017 23:00:00 8,5 5,6 7,9 32 18 43 23 NNO 1032,3 13
24.03.2017 22:00:00 8,9 5,6 7,9 36 19 47 25 NNO 1031,6 15
24.03.2017 21:00:00 8,6 5,7 7,9 40 21 47 25 NNO 1031,0 14
24.03.2017 20:00:00 8,7 5,5 7,9 32 18 40 21 NNO 1030,5 18
24.03.2017 19:00:00 8,8 5,4 7,9 32 18 40 21 NNO 1029,9 18
24.03.2017 18:00:00 8,6 5,1 7,9 36 19 47 25 NNO 1029,9 18
24.03.2017 17:00:00 8,9 4,6 7,8 32 18 40 21 N 1030,1 16
24.03.2017 16:00:00 8,3 5,1 7,8 29 16 36 19 NNO 1029,5 13
24.03.2017 15:00:00 8,1 4,5 7,7 29 16 40 21 NNO 1029,6 14
24.03.2017 14:00:00 7,6 4,2 7,7 32 18 40 21 NNO 1029,7 14
24.03.2017 13:00:00 7,2 3,9 7,7 36 19 40 21 NO 1030,2 14
24.03.2017 12:00:00 7,1 4,2 7,7 32 18 40 21 NO 1029,6 12
24.03.2017 11:00:00 7,0 3,9 7,7 32 18 40 21 NO 1029,7 10
24.03.2017 10:00:00 7,0 4,3 7,8 32 18 43 23 NO 1028,9 10
24.03.2017 09:00:00 6,8 4,2 7,8 36 19 47 25 NO 1027,7 9
24.03.2017 08:00:00 6,9 4,3 7,8 40 21 50 27 NO 1026,3 9
24.03.2017 07:00:00 7,1 4,4 7,8 43 23 50 27 NO 1025,4 9
24.03.2017 06:00:00 7,3 4,5 7,9 43 23 50 27 NO 1024,7 9
24.03.2017 05:00:00 7,5 4,3 7,9 43 23 50 27 NO 1024,3 9
24.03.2017 04:00:00 7,7 4,5 7,9 36 19 47 25 NO 1025,0 9
24.03.2017 03:00:00 7,9 4,4 7,8 40 21 47 25 NO 1024,3 9
24.03.2017 02:00:00 8,3 4,9 7,8 36 19 47 25 ONO 1024,3 9
24.03.2017 01:00:00 8,4 5,6 7,8 32 18 43 23 NO 1023,1 10
24.03.2017 00:00:00 8,4 6,1 7,8 36 19 47 25 NO 1022,2 9
23.03.2017 23:00:00 8,6 6,1 7,8 40 21 47 25 NO 1021,5 11
23.03.2017 22:00:00 8,8 6,1 7,8 40 21 47 25 NNO 1020,4 11
23.03.2017 21:00:00 - - - - - - - - - -

tt = temperatuur
td = dauwpunt
tw = water temperatuur
ff = windsnelheid
fx = windstoten
dd = windrichting
ppp = luchtdruk
vv = zicht

Weerstations in de omgeving